Cook, MN

6:01 PM CDT on May 24, 2017 (GMT -0500)
Cook Municipal

Weather History for KCQM - June, 2013

Change the Weather History Date:

Sunday, June 30, 2013

  Actual Average Record
Temperature  
Mean Temperature 65 °F -  
Max Temperature 80 °F 72 °F 89 °F (2002)
Min Temperature 50 °F 50 °F 37 °F (2010)
Growing Degree Days 15 (Base 50)    
Moisture  
Dew Point 50 °F    
Average Humidity 64    
Maximum Humidity 100    
Minimum Humidity 30    
Precipitation  
Precipitation 0.00 in - - ()
Sea Level Pressure  
Sea Level Pressure 30.11 in    
Wind  
Wind Speed 1 mph (North)    
Max Wind Speed 8 mph    
Max Gust Speed -    
Visibility 9 miles    
Events      
Averages and records for this station are not official NWS values.
T = Trace of Precipitation, MM = Missing Value Source: NWS Daily Summary

Daily Weather History Graph

Daily Weather History Graph

Search for Another Location

Airport or City:

Trip Planner

Search our weather history database for the weather conditions in past years. The results will help you decide how hot, cold, wet, or windy it might be!

Date:

Astronomy

Jun. 30, 2013 Rise Set
Actual Time 5:15 AM CDT 9:13 PM CDT
Civil Twilight 4:34 AM CDT 9:53 PM CDT
Nautical Twilight 3:38 AM CDT 10:49 PM CDT
Astronomical Twilight 2:08 AM CDT 12:19 AM CDT
Moon 12:37 AM CDT (6/30) 2:08 PM CDT (6/30)
Length of Visible Light 17h 18m
Length of Day
15h 57m
Last Quarter, 45% of the Moon is Illuminated
Jun 30
Last Quarter
Jul 8
New
Jul 15
First Quarter
Jul 22
Full
Jul 29
Last Quarter

Hourly Weather History & Observations

Time (CDT) Temp. Dew Point Humidity Pressure Visibility Wind Dir Wind Speed Gust Speed Precip Events Conditions
12:16 AM 53.6 °F 51.8 °F 94% 30.04 in 7.0 mi Calm Calm - N/A   Clear
12:37 AM 51.8 °F 51.8 °F 100% 30.04 in 7.0 mi Calm Calm - N/A   Clear
12:57 AM 51.8 °F 51.8 °F 100% 30.05 in 7.0 mi Calm Calm - N/A   Clear
1:16 AM 51.8 °F 51.8 °F 100% 30.05 in 7.0 mi Calm Calm - N/A   Clear
1:37 AM 51.8 °F 50.0 °F 94% 30.05 in 7.0 mi Calm Calm - N/A   Clear
1:57 AM 51.8 °F 50.0 °F 94% 30.05 in 10.0 mi Calm Calm - N/A   Clear
2:16 AM 50.0 °F 48.2 °F 94% 30.06 in 7.0 mi Calm Calm - N/A   Clear
2:37 AM 50.0 °F 48.2 °F 94% 30.06 in 10.0 mi Calm Calm - N/A   Clear
2:57 AM 50.0 °F 50.0 °F 100% 30.06 in 10.0 mi Calm Calm - N/A   Clear
3:16 AM 50.0 °F 48.2 °F 94% 30.06 in 7.0 mi Calm Calm - N/A   Clear
3:37 AM 50.0 °F 48.2 °F 94% 30.06 in 7.0 mi Calm Calm - N/A   Clear
3:57 AM 50.0 °F 48.2 °F 94% 30.07 in 7.0 mi Calm Calm - N/A   Clear
4:16 AM 50.0 °F 48.2 °F 94% 30.07 in 7.0 mi Calm Calm - N/A   Clear
4:37 AM 50.0 °F 48.2 °F 94% 30.08 in 10.0 mi Calm Calm - N/A   Clear
4:57 AM 50.0 °F 48.2 °F 94% 30.08 in 10.0 mi Calm Calm - N/A   Clear
5:16 AM 50.0 °F 48.2 °F 94% 30.09 in 7.0 mi Calm Calm - N/A   Clear
5:37 AM 50.0 °F 48.2 °F 94% 30.09 in 7.0 mi Calm Calm - N/A   Clear
5:57 AM 50.0 °F 48.2 °F 94% 30.10 in 7.0 mi Calm Calm - N/A   Clear
6:16 AM 50.0 °F 48.2 °F 94% 30.10 in 7.0 mi Calm Calm - N/A   Clear
6:37 AM 51.8 °F 51.8 °F 100% 30.10 in 7.0 mi Calm Calm - N/A   Clear
6:57 AM 53.6 °F 51.8 °F 94% 30.10 in 7.0 mi Calm Calm - N/A   Clear
7:16 AM 55.4 °F 51.8 °F 88% 30.11 in 10.0 mi Calm Calm - N/A   Clear
7:37 AM 57.2 °F 53.6 °F 88% 30.11 in 10.0 mi Calm Calm - N/A   Clear
7:57 AM 59.0 °F 53.6 °F 82% 30.11 in 10.0 mi Calm Calm - N/A   Clear
8:16 AM 60.8 °F 55.4 °F 82% 30.12 in 10.0 mi Calm Calm - N/A   Clear
8:37 AM 64.4 °F 55.4 °F 73% 30.12 in 10.0 mi Calm Calm - N/A   Clear
8:57 AM 66.2 °F 55.4 °F 68% 30.12 in 10.0 mi Calm Calm - N/A   Clear
9:16 AM 68.0 °F 55.4 °F 64% 30.12 in 10.0 mi Calm Calm - N/A   Clear
9:37 AM 69.8 °F 53.6 °F 56% 30.12 in 10.0 mi Calm Calm - N/A   Clear
9:57 AM 71.6 °F 53.6 °F 53% 30.12 in 10.0 mi Calm Calm - N/A   Clear
10:16 AM 73.4 °F 53.6 °F 50% 30.12 in 10.0 mi Calm Calm - N/A   Clear
10:37 AM 75.2 °F 48.2 °F 38% 30.11 in 10.0 mi NNE 3.5 mph - N/A   Clear
10:57 AM 75.2 °F 46.4 °F 36% 30.12 in 10.0 mi Calm Calm - N/A   Clear
11:16 AM 75.2 °F 48.2 °F 38% 30.12 in 10.0 mi Calm Calm - N/A   Clear
11:37 AM 77.0 °F 46.4 °F 34% 30.12 in 10.0 mi NW 4.6 mph - N/A   Clear
11:57 AM 77.0 °F 46.4 °F 34% 30.12 in 10.0 mi NNW 4.6 mph - N/A   Clear
12:16 PM 77.0 °F 46.4 °F 34% 30.11 in 10.0 mi NW 4.6 mph - N/A   Scattered Clouds
12:37 PM 75.2 °F 48.2 °F 38% 30.11 in 10.0 mi Calm Calm - N/A   Mostly Cloudy
12:56 PM 78.8 °F 48.2 °F 34% 30.11 in 10.0 mi NNE 6.9 mph - N/A   Scattered Clouds
1:17 PM 78.8 °F 48.2 °F 34% 30.12 in 10.0 mi North 6.9 mph - N/A   Scattered Clouds
1:37 PM 78.8 °F 48.2 °F 34% 30.11 in 10.0 mi North 4.6 mph - N/A   Scattered Clouds
1:56 PM 78.8 °F 48.2 °F 34% 30.11 in 10.0 mi North 5.8 mph - N/A   Clear
2:17 PM 78.8 °F 46.4 °F 32% 30.12 in 10.0 mi North 8.1 mph - N/A   Clear
2:36 PM 78.8 °F 46.4 °F 32% 30.11 in 10.0 mi Calm Calm - N/A   Scattered Clouds
2:57 PM 78.8 °F 46.4 °F 32% 30.11 in 10.0 mi NE 5.8 mph - N/A   Scattered Clouds
3:16 PM 78.8 °F 48.2 °F 34% 30.12 in 10.0 mi Calm Calm - N/A   Scattered Clouds
3:37 PM 77.0 °F 48.2 °F 36% 30.12 in 10.0 mi NNE 4.6 mph - N/A   Scattered Clouds
3:57 PM 78.8 °F 48.2 °F 34% 30.12 in 10.0 mi NNW 5.8 mph - N/A   Scattered Clouds
4:16 PM 80.6 °F 46.4 °F 30% 30.12 in 10.0 mi NNW 5.8 mph - N/A   Scattered Clouds
4:37 PM 80.6 °F 48.2 °F 32% 30.12 in 10.0 mi NW 5.8 mph - N/A   Clear
4:57 PM 80.6 °F 48.2 °F 32% 30.12 in 10.0 mi Calm Calm - N/A   Scattered Clouds
5:16 PM 78.8 °F 48.2 °F 34% 30.12 in 10.0 mi North 5.8 mph - N/A   Scattered Clouds
5:37 PM 75.2 °F 51.8 °F 44% 30.12 in 10.0 mi Calm Calm - N/A   Mostly Cloudy
5:57 PM 78.8 °F 51.8 °F 39% 30.12 in 10.0 mi Calm Calm - N/A   Scattered Clouds
6:16 PM 78.8 °F 48.2 °F 34% 30.12 in 10.0 mi Calm Calm - N/A   Clear
6:37 PM 78.8 °F 48.2 °F 34% 30.12 in 10.0 mi North 4.6 mph - N/A   Clear
6:57 PM 78.8 °F 48.2 °F 34% 30.12 in 10.0 mi NNW 3.5 mph - N/A   Clear
7:16 PM 78.8 °F 48.2 °F 34% 30.13 in 10.0 mi Calm Calm - N/A   Clear
7:37 PM 77.0 °F 48.2 °F 36% 30.13 in 10.0 mi NNW 4.6 mph - N/A   Clear
7:56 PM 75.2 °F 50.0 °F 41% 30.13 in 10.0 mi Calm Calm - N/A   Clear
8:16 PM 73.4 °F 51.8 °F 47% 30.13 in 10.0 mi Calm Calm - N/A   Clear
8:37 PM 71.6 °F 51.8 °F 50% 30.13 in 10.0 mi Calm Calm - N/A   Clear
8:56 PM 71.6 °F 51.8 °F 50% 30.13 in 10.0 mi Calm Calm - N/A   Clear
9:17 PM 66.2 °F 55.4 °F 68% 30.14 in 10.0 mi Calm Calm - N/A   Clear
9:37 PM 64.4 °F 55.4 °F 73% 30.15 in 10.0 mi Calm Calm - N/A   Scattered Clouds
9:56 PM 64.4 °F 55.4 °F 73% 30.15 in 10.0 mi Calm Calm - N/A   Mostly Cloudy
10:17 PM 62.6 °F 57.2 °F 82% 30.15 in 10.0 mi Calm Calm - N/A   Mostly Cloudy
10:36 PM 62.6 °F 57.2 °F 82% 30.15 in 10.0 mi Calm Calm - N/A   Scattered Clouds
10:56 PM 60.8 °F 57.2 °F 88% 30.16 in 10.0 mi Calm Calm - N/A   Scattered Clouds
11:16 PM 59.0 °F 55.4 °F 88% 30.16 in 10.0 mi Calm Calm - N/A   Clear
11:36 PM 59.0 °F 55.4 °F 88% 30.16 in 10.0 mi Calm Calm - N/A   Clear
11:57 PM 57.2 °F 55.4 °F 94% 30.16 in 10.0 mi Calm Calm - N/A   Clear